Overview Statistics Trail Chart Weather Telemetry Raw packets
 

This is the latest recevied weather packets stored in our database for station/object W7BTL. If no packets are shown the sender has not sent any weather packets the latest 10 day(s).

<< 93 94 95 96 97 98 99 >>
Time Temp. Humidity Pressure Rain* Wind** Luminosity Snow
1787960744 35° C 39% 1009.2 hPa 0 mm - 385 W/m² -
1787960439 35° C 39% 1009.3 hPa 0 mm - 403 W/m² -
1787960133 35° C 40% 1009.2 hPa 0 mm - 423 W/m² -
1787959833 35.56° C 40% 1009.3 hPa 0 mm - 443 W/m² -
1787959529 35.56° C 39% 1009.2 hPa 0 mm - 466 W/m² -
1787959228 36.11° C 39% 1009.3 hPa 0 mm - 490 W/m² -
1787958923 36.11° C 38% 1009.1 hPa 0 mm - 512 W/m² -
1787958619 36.11° C 36% 1009.4 hPa 0 mm - 535 W/m² -
1787958314 35.56° C 37% 1009.3 hPa 0 mm - 558 W/m² -
1787958010 36.11° C 37% 1009.4 hPa 0 mm - 582 W/m² -
1787957708 36.67° C 35% 1009.3 hPa 0 mm - 588 W/m² -
1787957403 36.67° C 37% 1009.4 hPa 0 mm - 595 W/m² -
1787957103 36.11° C 36% 1009.5 hPa 0 mm - 582 W/m² -
1787956803 36.67° C 36% 1009.6 hPa 0 mm - 473 W/m² -
1787956498 36.67° C 37% 1009.6 hPa 0 mm - 713 W/m² -
1787956193 36.67° C 37% 1009.7 hPa 0 mm - 612 W/m² -
1787955892 37.22° C 35% 1009.6 hPa 0 mm - 573 W/m² -
1787955589 36.67° C 38% 1009.8 hPa 0 mm - 691 W/m² -
1787955284 37.22° C 37% 1009.9 hPa 0 mm - 626 W/m² -
1787954983 37.22° C 38% 1009.7 hPa 0 mm - 664 W/m² -
1787954679 37.22° C 38% 1010 hPa 0 mm - 770 W/m² -
1787954379 37.22° C 38% 1010 hPa 0 mm - 592 W/m² -
1787954074 36.67° C 40% 1009.7 hPa 0 mm - 809 W/m² -
1787953773 37.22° C 40% 1009.9 hPa 0 mm - 855 W/m² -
1787953468 37.22° C 38% 1010.1 hPa 0 mm - 777 W/m² -

* Rain latest hour (hover to see other rain measurements)
** Current wind speed in m/s (hover to see current wind gust speed)